GOES 16

Last updated on Sun Jun 21 2026 00:02:46 GMT+0000 (Coordinated Universal Time)

1 41866U 16071A 26171.35461541 -.00000095 00000+0 00000+0 0 9999 2 41866 0.3504 85.5238 0000306 339.5740 226.4328 1.00271436 35133
UTC large
Height (km)
Speed (km/s)
/
Latitude / Longitude
Inclination (degrees)
Orbital Period (minutes)
Azimuth
Elevation
Range (km)
Doppler Factor

Next 0 passes for location: London (51.5072 / 0.1276)

No passes found over London.
GOES 16